CW9561 Weather Reports


time (UTC)temp
C
wind
direction
speed
KPH
gust
KPH
rain 1hr
cm
rain 24hr
cm
rain mn
cm
humidity
%
barometer
mb
20260502182038 10 52 6.4 0.0 0.00 0.00 0.00 41 1024.0
20260502181032 9 26 4.8 0.0 0.00 0.00 0.00 42 1024.4
20260502164040 6 113 4.8 0.0 0.00 0.00 0.00 54 1025.1
20260502163032 5 82 6.4 0.0 0.00 0.00 0.00 55 1025.3
20260502162042 5 103 4.8 0.0 0.00 0.00 0.00 58 1025.3
20260502161038 5 117 3.2 0.0 0.00 0.00 0.00 58 1025.3
20260502152036 3 51 4.8 0.0 0.00 0.00 0.00 60 1025.4
20260502151027 3 9 3.2 0.0 0.00 0.00 0.00 62 1025.5
20260502123041 -4 345 3.2 0.0 0.00 0.00 0.00 78 1024.9
20260502122036 -5 346 3.2 0.0 0.00 0.00 0.00 78 1024.5
20260502121027 -4 346 4.8 0.0 0.00 0.00 0.00 77 1024.6
20260502115038 -4 346 4.8 0.0 0.00 0.00 0.00 78 1024.5
20260502114030 -5 345 4.8 0.0 0.00 0.00 0.00 78 1024.5
20260502112035 -4 346 4.8 0.0 0.00 0.00 0.00 76 1024.6
20260502111036 -4 346 3.2 0.0 0.00 0.00 0.00 76 1024.6
20260502105023 -3 346 6.4 0.0 0.00 0.00 0.00 74 1024.4
20260502104041 -3 346 6.4 0.0 0.00 0.00 0.00 74 1024.5
20260502103035 -3 346 4.8 0.0 0.00 0.00 0.00 75 1024.4
20260502102030 -3 346 4.8 0.0 0.00 0.00 0.00 74 1024.5
20260502101021 -3 346 4.8 0.0 0.00 0.00 0.00 73 1024.5
20260502091021 -2 346 3.2 0.0 0.00 0.00 0.00 71 1023.8
20260502071024 -1 345 0.0 0.0 0.00 0.00 0.00 64 1024.3
20260502070024 -1 346 0.0 0.0 0.00 0.00 0.00 64 1024.5
20260502065041 -1 346 0.0 0.0 0.00 0.00 0.00 63 1024.4
20260502064033 0 345 0.0 0.0 0.00 0.00 0.00 63 1024.4
20260502063025 0 346 1.6 0.0 0.00 0.00 0.00 62 1024.4
20260502062042 0 345 4.8 0.0 0.00 0.00 0.00 63 1024.3
20260502060034 0 345 0.0 0.0 0.00 0.00 0.00 62 1024.2
20260502055026 0 345 1.6 0.0 0.00 0.00 0.00 60 1024.0
20260502054019 0 346 3.2 0.0 0.00 0.00 0.00 60 1024.1
20260502053039 0 346 0.0 0.0 0.00 0.00 0.00 59 1023.8
20260502052037 0 346 1.6 0.0 0.00 0.00 0.00 60 1023.9
20260502051029 0 346 0.0 0.0 0.00 0.00 0.00 62 1023.8
20260502045040 0 345 4.8 0.0 0.00 0.00 0.00 64 1023.7
20260502043030 0 345 0.0 0.0 0.00 0.00 0.00 64 1023.9
20260502042028 0 346 0.0 0.0 0.00 0.00 0.00 62 1023.7
20260502041041 0 346 0.0 0.0 0.00 0.00 0.00 62 1023.5
20260502040031 0 346 0.0 0.0 0.00 0.00 0.00 63 1023.5
20260502035023 1 346 0.0 0.0 0.00 0.00 0.00 60 1023.4
20260502034023 1 346 0.0 0.0 0.00 0.00 0.00 60 1023.3
20260502033035 1 345 3.2 0.0 0.00 0.00 0.00 61 1022.9
20260502032026 2 345 1.6 0.0 0.00 0.00 0.00 59 1022.8
20260502031023 2 345 1.6 0.0 0.00 0.00 0.00 57 1022.7
20260502030035 2 346 0.0 0.0 0.00 0.00 0.00 57 1022.6
20260502025031 3 345 0.0 0.0 0.00 0.00 0.00 53 1022.7
20260502024023 3 346 0.0 0.0 0.00 0.00 0.00 52 1022.6
20260502023039 4 346 0.0 0.0 0.00 0.00 0.00 51 1022.5
20260502021035 5 61 0.0 0.0 0.00 0.00 0.00 47 1022.2
20260502020033 5 61 0.0 0.0 0.00 0.00 0.00 46 1022.2
20260502015025 5 61 0.0 0.0 0.00 0.00 0.00 44 1022.1
20260502014042 6 64 0.0 0.0 0.00 0.00 0.00 44 1022.0
20260502013036 6 325 1.6 0.0 0.00 0.00 0.00 44 1021.9
20260502012032 6 44 6.4 0.0 0.00 0.00 0.00 42 1021.1
20260502011026 7 57 1.6 0.0 0.00 0.00 0.00 41 1021.0
20260502010024 7 344 4.8 0.0 0.00 0.00 0.00 40 1021.0
20260502004034 7 310 3.2 0.0 0.00 0.00 0.00 38 1020.8
20260502003027 7 355 3.2 0.0 0.00 0.00 0.00 38 1021.0
20260502002042 8 9 3.2 0.0 0.00 0.00 0.00 35 1020.8
20260502001034 8 346 6.4 0.0 0.00 0.00 0.00 37 1020.9
20260502000030 8 59 8.0 0.0 0.00 0.00 0.00 35 1021.1
20260501235023 8 23 3.2 0.0 0.00 0.00 0.00 30 1020.4
20260501234036 8 302 3.2 0.0 0.00 0.00 0.00 29 1020.4
20260501233036 8 355 4.8 0.0 0.00 0.00 0.00 27 1020.3
20260501232031 8 17 1.6 0.0 0.00 0.00 0.00 30 1020.5
20260501231025 8 331 6.4 0.0 0.00 0.00 0.00 30 1020.3
20260501230040 8 13 6.4 0.0 0.00 0.00 0.00 31 1020.2
20260501225034 8 56 6.4 0.0 0.00 0.00 0.00 32 1020.2
20260501224033 9 338 4.8 0.0 0.00 0.00 0.00 30 1020.2
20260501223025 9 276 4.8 0.0 0.00 0.00 0.00 32 1020.2
20260501222038 8 14 3.2 0.0 0.00 0.00 0.00 32 1020.3
20260501221033 8 30 8.0 0.0 0.00 0.00 0.00 34 1020.5
20260501214040 7 360 3.2 0.0 0.00 0.00 0.00 37 1020.7
20260501211039 7 94 6.4 0.0 0.00 0.00 0.00 50 1021.1
20260501210031 7 60 4.8 0.0 0.00 0.00 0.00 46 1021.3
20260501205034 7 68 3.2 0.0 0.00 0.00 0.00 42 1021.3
20260501204031 7 114 4.8 0.0 0.00 0.00 0.00 42 1021.2
20260501203030 7 40 3.2 0.0 0.00 0.00 0.00 43 1021.3
20260501202027 7 28 1.6 0.0 0.00 0.00 0.00 43 1021.4
20260501201026 7 28 3.2 0.0 0.00 0.00 0.00 46 1021.3
20260501200021 6 31 1.6 0.0 0.00 0.00 0.00 48 1021.4
20260501195038 6 343 0.0 0.0 0.00 0.00 0.00 51 1021.4
20260501194033 5 45 0.0 0.0 0.00 0.00 0.00 54 1021.6
20260501192030 5 96 3.2 0.0 0.00 0.00 0.00 53 1021.5
20260501191029 5 102 6.4 0.0 0.00 0.00 0.00 52 1021.4
20260501190029 6 136 4.8 0.0 0.00 0.00 0.00 52 1021.4
20260501185021 5 122 4.8 0.0 0.00 0.00 0.00 57 1021.6
20260501184020 5 98 6.4 0.0 0.00 0.00 0.00 57 1021.5
20260501183022 5 115 6.4 0.0 0.00 0.00 0.00 58 1021.7